Skip Page Navigation
NASA JPL Caltech
NASA Logo - Jet Propulsion Laboratory + View the NASA Portal
+ Center for Near-Earth Object Studies
JPL Home Earth Solar System Stars & Galaxies Technology
JPL Solar System Dynamics
BODIES ORBITS EPHEMERIDES TOOLS PHYSICAL DATA DISCOVERY FAQ SITE MAP
JPL Small-Body Database Browser
Search: [ help ]  
212307 (2005 OG6)
Classification: Main-belt Asteroid          SPK-ID: 2212307
Ephemeris | Orbit Diagram | Orbital Elements | Mission Design | Physical Parameters | Discovery Circumstances | Close-Approach Data ]

[ show orbit diagram ]
Orbital Elements at Epoch 2459000.5 (2020-May-31.0) TDB
Reference: JPL 15 (heliocentric ecliptic J2000)
 Element Value Uncertainty (1-sigma)   Units 
e .1059112997910365 4.3537e-08  
a 3.130867680644541 3.3854e-08 au
q 2.79927341511373 1.4122e-07 au
i 2.349383302244438 5.2866e-06 deg
node 73.51219251128613 0.00013151 deg
peri 254.0651098986029 0.00013481 deg
M 244.3342515279815 3.2577e-05 deg
tp 2459650.626350350226
(2022-Mar-12.12635035)
0.00018874 TDB
period 2023.464069682659
5.54
3.2819e-05
8.985e-08
d
yr
n .1779127217497166 2.8856e-09 deg/d
Q 3.462461946175352 3.7439e-08 au
  Orbit Determination Parameters
   # obs. used (total)      341  
   data-arc span      5385 days (14.74 yr)  
   first obs. used      2005-07-28  
   last obs. used      2020-04-25  
   planetary ephem.      DE431  
   SB-pert. ephem.      SB431-N16  
   condition code      0  
   norm. resid. RMS      .56941  
   source      ORB  
   producer      Otto Matic  
   solution date      2020-May-21 08:44:19  

Additional Information
 Earth MOID = 1.78895 au 
 Jupiter MOID = 1.84703 au 
 T_jup = 3.203 
[ show covariance matrix ]

Ephemeris | Orbit Diagram | Orbital Elements | Mission Design | Physical Parameters | Discovery Circumstances | Close-Approach Data ]

Physical Parameter Table
Parameter Symbol Value Units Sigma Reference Notes
absolute magnitude H 15.5   n/a MPO433387  

212307 (2005 OG6)          Discovered 2005-Jul-28 by NEAT at Palomar
Reference: 20090409/Numbers.arcLast Updated: 2009-04-10

[ hide close-approach data ]
Close-Approach Data   ...sorted by Date/Time (TDB)
Date/Time (TDB) Time Uncertainty
(days_HH:MM)
Body Nominal Distance (au) Minimum Distance (au) Maximum Distance (au) V-relative (km/s) V-infinity (km/s) JD (TDB) Time Uncertainty (minutes) Semi-major axis (km) Semi-minor axis (km) range-LOV angle (deg) N-sigma BP Orbit Ref. Reference Modified
1907-Dec-10 05:10 00:06 Jupiter 1.88004366696049 1.88004269482506 1.88004463909987 2.59654971076289 2.416816821123 2417919.715440413 5.70199770600304 168.859423983329 13.5166202659799 -76.5920576176912 3126379.71351287 T 15 CATAB v2.0f-lin.ifort 2020-May-21 08:44:32 2020-May-21 08:44
1918-Apr-21 13:05 00:05 Jupiter 1.84735217702463 1.84735149211949 1.84735286192956 2.90903055685557 2.74689757441018 2421705.045028359 5.16549650701931 52.3590857709634 13.0404361252918 -86.3458456776261 1345723.58535201 T 15 CATAB v2.0f-lin.ifort 2020-May-21 08:44:32 2020-May-21 08:44
1928-Sep-02 20:25 00:04 Jupiter 1.98006577096724 1.98006448029175 1.98006706164813 3.94479927488215 3.83482612900231 2425492.350713335 4.45840955927594 194.381712973799 22.3232505841163 -75.9722894461224 2694004.57074971 T 15 CATAB v2.0f-lin.ifort 2020-May-21 08:44:32 2020-May-21 08:44
1991-Jun-25 07:11 00:01 Jupiter 1.91858237183457 1.91858182729333 1.91858291637591 2.64861625721703 2.47632813261819 2448432.798984032 1.35952760529318 75.1926989240091 12.7995653083782 -81.0998040337374 2958838.66287095 T 15 CATAB v2.0f-lin.ifort 2020-May-21 08:44:32 2020-May-21 08:44
2001-Nov-07 02:26 < 00:01 Jupiter 1.84171280011228 1.84171237725559 1.84171322296887 2.73394557197917 2.56020272162413 2452220.601571910 0.792299152467414 52.6182119919136 10.2464316717122 -87.3055827682177 2756338.62647524 T 15 CATAB v2.0f-lin.ifort 2020-May-21 08:44:32 2020-May-21 08:44
2012-Mar-21 00:00 < 00:01 Jupiter 1.93350144852693 1.9335009069703 1.93350199008357 3.6132383511915 3.489890740513 2456007.500283921 0.273580416968496 42.1531347174891 20.6084539438293 -83.536282535332 2690173.01024573 T 15 CATAB v2.0f-lin.ifort 2020-May-21 08:44:32 2020-May-21 08:44
2075-Jan-07 20:18 00:03 Jupiter 1.97472245883281 1.974721751273 1.97472316639397 2.78110536731144 2.62234288203434 2478945.345628796 2.95122831342648 124.961933121983 13.7696485683865 -81.5636215448091 2807741.23762191 T 15 CATAB v2.0f-lin.ifort 2020-May-21 08:44:32 2020-May-21 08:44
2085-May-26 21:21 00:04 Jupiter 1.8588122953603 1.85881182975573 1.85881276096509 2.64335849426629 2.46495137507713 2482737.389727556 3.62060907131275 85.6377390591542 12.1739853645305 -80.4069725046945 3286324.64531068 T 15 CATAB v2.0f-lin.ifort 2020-May-21 08:44:32 2020-May-21 08:44
2095-Oct-07 11:19 00:04 Jupiter 1.90335035708541 1.90334965458685 1.9033510595844 3.32230667561926 3.1855436639608 2486522.971802057 4.21178358074649 84.9198742242906 18.1821061997476 -81.0098479790706 2347906.56033491 T 15 CATAB v2.0f-lin.ifort 2020-May-21 08:44:32 2020-May-21 08:44
2168-Dec-12 18:16 00:08 Jupiter 1.87884492904269 1.87884398392272 1.87884587416971 2.5960753594507 2.41618822134777 2513252.261304404 7.93284106193079 217.134209264574 11.4429324049886 -78.8773714084517 3273055.07774063 T 15 CATAB v2.0f-lin.ifort 2020-May-21 08:44:32 2020-May-21 08:44
2179-Apr-26 15:48 00:09 Jupiter 1.87864538084744 1.87864453021799 1.87864623147657 3.05509178973587 2.90376450854498 2517039.158005029 8.59153379419038 61.4811853448471 15.4236585984764 -83.9255166772018 1149755.23029592 T 15 CATAB v2.0f-lin.ifort 2020-May-21 08:44:32 2020-May-21 08:44
Ephemeris | Orbit Diagram | Orbital Elements | Mission Design | Physical Parameters | Discovery Circumstances | Close-Approach Data ]
ABOUT SSD CREDITS/AWARDS PRIVACY/COPYRIGHT GLOSSARY LINKS
FirstGov 2020-Jul-13 08:54 UT
(server date/time)  
NASA Home Page
Site Manager:   Ryan S. Park
Webmaster  Alan B. Chamberlin